#timestamp,LO_Frequency,Hit,StdDev 
1505120415.8,286047000.9,N,1.1
1505120435.6,286047000.4,N,1.1
1505120455.5,286046999.8,N,1.1
1505120475.3,286047000.1,N,1.1
1505120495.2,286047002.8,N,1.1
1505120515.9,286047002.7,N,1.1
1505120535.7,286047000.3,N,1.1
1505120555.6,286047000.0,N,1.1
1505120575.4,286682708.3,Y,0.0
1505120595.3,286047002.7,P,0.8
1505120615.1,286047000.5,N,0.9
1505120635.9,286046999.7,N,1.1
1505120655.7,286047000.0,N,1.1
1505120675.5,286047000.3,N,1.0
1505120695.4,286046999.9,N,1.0
1505120715.2,286047000.6,N,0.9
1505120735.1,286047001.8,N,0.9
1505120736.0,286047001.8,N,0.9
1505120755.8,286046999.7,N,0.9
1505120775.6,286046999.8,N,0.9
1505120795.5,286047000.2,N,0.9
1505120815.3,286047002.3,N,1.0
1505120835.2,286047004.8,Y,0.0
1505120855.9,286047004.7,P,2.0
1505120875.7,286047003.1,N,1.6
1505120895.6,286047001.5,N,1.5
1505120915.4,286047002.0,N,1.4
1505120935.2,286046999.8,N,1.6
1505120955.1,286046999.7,N,1.7
1505120956.0,286046999.7,N,1.7
1505120975.8,286047000.0,N,1.7
1505120995.7,286047000.2,N,1.6
1505121015.5,286046999.9,N,1.6
1505121035.3,286047002.2,N,1.5
1505121055.2,286047002.5,N,1.5
1505121075.0,286047002.1,N,1.5
1505121075.9,286047002.1,N,1.4
1505121095.8,286047002.6,N,1.4
1505121115.6,286047000.1,N,1.4
1505121135.4,286047000.4,N,1.4
1505121155.3,286046999.9,N,1.4
1505121175.1,286046999.7,N,1.4
1505121195.9,286047000.0,N,1.4
1505121215.7,286046999.9,N,1.4
1505121235.5,286046999.9,N,1.4
1505121255.4,286047000.6,N,1.3
1505121275.2,286047000.7,N,1.3
1505121295.1,286047000.1,N,1.3
1505121296.0,286047000.1,N,1.3
1505121315.8,286047002.8,N,1.3
1505121335.6,286047002.8,N,1.3
1505121355.5,286047000.1,N,1.3
1505121375.3,286047000.1,N,1.3
1505121395.2,286047002.4,N,1.2
1505121415.9,286047002.4,N,1.1
1505121435.7,286047000.3,N,1.1
1505121455.6,286046999.7,N,1.1
1505121475.4,286047000.3,N,1.1
1505121495.3,286047002.6,N,1.1
1505121515.1,286047002.2,N,1.1
1505121516.0,286047002.2,N,1.2
1505121535.8,286047002.1,N,1.2
1505121555.7,286047002.8,N,1.2
1505121575.5,286047002.4,N,1.2
1505121595.4,286047002.1,N,1.2
1505121615.2,286047002.4,N,1.2
1505121635.0,286047001.6,N,1.2
1505121635.9,286047001.6,N,1.1
1505121655.8,286047001.7,N,1.1
1505121675.6,286047002.2,N,1.1
1505121695.5,286047002.3,N,1.1
1505121715.3,286047001.9,N,1.1
1505121735.1,286047001.9,N,1.1
1505121755.9,286047002.3,N,1.0
1505121775.7,286047002.3,N,1.0
1505121795.6,286047002.8,N,1.0
1505121815.4,286047002.3,N,1.0
1505121835.2,286047002.2,N,0.9
1505121855.1,286047002.5,N,0.9
1505121856.0,286047002.5,N,0.9
1505121875.8,286047002.3,N,0.9
1505121895.7,286047002.8,Y,0.0
1505121915.5,286047001.2,P,0.3
1505121935.3,286047000.7,N,0.5
1505121955.2,286047002.7,P,0.8
1505121975.0,286046999.7,N,1.0
1505121975.9,286046999.7,N,1.1
1505121995.8,286047000.5,N,1.0
1505122015.6,286047001.0,N,1.0
1505122035.4,286046998.1,N,1.3
1505122055.3,286047000.8,N,1.2
1505122075.1,286046999.9,N,1.2
1505122095.9,286047001.0,N,1.1
1505122115.7,286046999.9,N,1.1
1505122135.5,286047001.0,N,1.1
1505122155.4,286046999.9,N,1.0
1505122175.2,286047001.0,N,1.0
1505122195.1,286046998.5,N,1.1
1505122196.0,286046998.5,N,1.2
1505122215.8,286047000.9,N,1.1
1505122235.6,286046998.5,N,1.2
1505122255.5,286046998.1,N,1.2
1505122275.3,286047000.4,N,1.2
1505122295.2,286047000.6,N,1.2
1505122315.9,286046998.2,N,1.2
1505122335.7,286046998.1,N,1.3
1505122355.6,286046998.3,N,1.3
1505122375.4,286047000.5,N,1.3
1505122395.3,286047000.6,N,1.2
1505122415.1,286047001.0,N,1.2
1505122435.8,286046999.7,N,1.2
1505122485.7,286046998.1,E,nan
1505122495.6,286047002.6,N,0.0
1505122515.5,286047002.2,P,0.2
1505122535.3,286047001.7,P,0.4
1505122555.2,286047004.4,Y,0.0
1505122575.9,286047000.0,P,1.1
1505122595.7,286047002.7,N,1.2
1505122615.6,286047001.9,N,1.0
1505122635.4,286047002.2,N,0.9
1505122655.3,286047002.8,N,0.9
1505122675.1,286047000.1,N,1.1
1505122676.0,286047000.1,N,1.1
1505122695.8,286046999.7,N,1.2
1505122715.7,286046999.8,N,1.2
1505122735.5,286046999.9,N,1.2
1505122755.3,286047000.2,N,1.2
1505122775.2,286047000.8,N,1.2
1505122795.0,286047000.6,N,1.1
1505122795.9,286047000.6,N,1.1
1505122815.8,286046999.9,N,1.1
1505122835.6,286046999.9,N,1.1
1505122855.5,286047000.5,N,1.0
1505122875.3,286047000.7,N,1.0
1505122895.1,286047000.7,N,1.0
1505122915.9,286047000.6,N,1.0
1505122935.7,286046999.9,N,1.0
1505122955.6,286047000.0,N,0.9
1505122975.4,286047000.0,N,0.9
1505122995.2,286047000.3,N,0.9
1505123015.1,286047001.2,N,0.9
1505123016.0,286047001.2,N,0.9
1505123035.8,286046999.3,N,0.9
1505123055.7,286046998.7,N,1.0
1505123075.5,286046999.2,N,1.0
1505123095.3,286046999.6,N,0.9
1505123115.2,286046997.0,Y,0.0
1505123135.0,286046997.3,P,1.6
1505123135.9,286046997.3,N,1.5
1505123155.8,286046997.3,N,1.4
1505123175.6,286046997.9,N,1.2
1505123195.4,286046997.7,N,1.1
1505123215.3,286046995.1,Y,0.0
1505123235.1,286046996.8,P,0.6
1505123255.9,286046997.8,P,0.5
1505123275.7,286046997.3,P,0.5
1505123295.5,286046997.1,Y,0.0
1505123315.4,286046999.4,P,1.0
1505123335.2,286046998.2,N,0.8
1505123355.1,286046998.2,N,0.7
1505123356.0,286046998.2,N,0.6
1505123375.8,286046996.6,Y,0.0
1505123395.6,286046998.2,P,0.0
1505123415.5,286046998.4,P,0.1
1505123435.3,286046998.8,P,0.2
1505123455.2,286046999.5,N,0.5
1505123475.0,286046996.5,Y,0.0
1505123475.9,286046996.5,P,1.1
1505123495.8,286046998.6,N,1.0
1505123515.6,286046998.6,N,0.9
1505123535.4,286046998.8,N,0.9
1505123555.3,286047001.2,N,1.4
1505123575.1,286047001.1,N,1.5
1505123595.8,286047001.0,N,1.6
1505123615.7,286046998.1,N,1.5
1505123635.5,286046998.4,N,1.5
1505123655.4,286046998.5,N,1.4
1505123675.2,286046998.4,N,1.3
1505123695.0,286046998.1,N,1.3
1505123695.9,286046998.1,N,1.3
1505123715.8,286046998.2,N,1.3
1505123735.6,286046998.9,N,1.2
1505123755.5,286046996.5,N,1.3
1505123775.3,286046997.0,N,1.3
1505123795.1,286046996.5,N,1.4
1505123815.9,286046997.5,N,1.3
1505123835.7,286046997.9,N,1.3
1505123855.6,286046997.3,N,1.3
1505123875.4,286046994.9,Y,0.0
1505123895.2,286046997.2,P,0.6
1505123915.1,286046999.3,N,0.9
1505123916.0,286046999.3,N,0.9
1505123935.8,286046998.4,N,0.8
1505123955.7,286046999.6,N,0.8
1505123975.5,286046999.5,N,0.8
1505123995.3,286046999.2,N,0.8
